DW5247 Lemo FI current weather conditions

sailwx.info

Wind from 180

Air temperature -2.2° C
Dewpoint -3.3° C

Last reported at 2017-Feb-20 00:52 UTC.
Time now 2017-Feb-20 01:37 UTC

Location: N 62°41' E 029°49'.
View on Google Maps.

See reports from other nearby stations

  
Tides and Currents Weather Stations Pressure Air Temp Water Temp Dewpoint Dewpoint Depression Visibility Wind Speed Wind Dir Waves Ship Positions
date/time (UTC)wind fromknots sea level pressurealtimeterstation pressurevisibilityair tempwater tempwave heightnotes
2017-Feb-20 00:52 180 -2.2
2017-Feb-20 00:47 203 -2.2
2017-Feb-20 00:42 180 -2.2
2017-Feb-20 00:37 180 -2.2
2017-Feb-20 00:32 225 -1.7
2017-Feb-20 00:27 180 -1.7
2017-Feb-20 00:22 225 -1.7
2017-Feb-20 00:17 248 -1.1
2017-Feb-20 00:12 225 -1.1
2017-Feb-20 00:07 203 -1.1
2017-Feb-20 00:02 248 -1.1
2017-Feb-19 23:57 180 -1.1
2017-Feb-19 23:52 135 -1.1
2017-Feb-19 23:47 068 -1.1
2017-Feb-19 23:42 068 -1.1
2017-Feb-19 23:37 068 -1.7
2017-Feb-19 23:32 068 -1.7
2017-Feb-19 23:27 068 -1.7
2017-Feb-19 23:22 068 -1.7
2017-Feb-19 23:17 068 -1.7
2017-Feb-19 23:12 068 -1.7
2017-Feb-19 23:07 068 -1.7
2017-Feb-19 23:02 068 -1.7
2017-Feb-19 22:57 068 -1.7
2017-Feb-19 22:52 068 -1.7
2017-Feb-19 22:47 068 -1.7
2017-Feb-19 22:42 068 -1.7
2017-Feb-19 22:37 068 -1.7
2017-Feb-19 22:32 068 -1.7
2017-Feb-19 22:27 068 -1.7
2017-Feb-19 22:22 068 -1.7
2017-Feb-19 22:17 068 -1.7
2017-Feb-19 22:12 068 -1.7
2017-Feb-19 22:07 068 -1.7
2017-Feb-19 21:57 068 -1.7
2017-Feb-19 21:52 068 -1.7
2017-Feb-19 21:47 068 -1.7
2017-Feb-19 21:42 068 -1.7
2017-Feb-19 21:37 068 -1.7
2017-Feb-19 21:32 068 -1.7
2017-Feb-19 21:27 068 -1.7
2017-Feb-19 21:22 068 -1.7
2017-Feb-19 21:17 068 -1.7
2017-Feb-19 21:12 068 -1.7
2017-Feb-19 21:07 068 -1.7
2017-Feb-19 21:02 068 -1.7
2017-Feb-19 20:57 068 -1.1
2017-Feb-19 20:52 068 -1.1
2017-Feb-19 20:47 068 -1.1
2017-Feb-19 20:42 068 -1.1
2017-Feb-19 20:37 068 -1.1
2017-Feb-19 20:32 068 -1.1
2017-Feb-19 20:27 068 -1.1
2017-Feb-19 20:22 068 -1.1
2017-Feb-19 20:17 068 -1.1
2017-Feb-19 20:12 068 -1.1
2017-Feb-19 20:07 068 -1.1
2017-Feb-19 20:02 068 -1.1
2017-Feb-19 19:57 068 0 gusting 1 -1.1
2017-Feb-19 19:52 068 0 gusting 1 -1.1
2017-Feb-19 19:47 068 0 gusting 1 -1.1
2017-Feb-19 19:42 068 1 gusting 1 -1.1
2017-Feb-19 19:37 068 1 gusting 1 -1.1
2017-Feb-19 19:32 068 0 gusting 1 -0.6
2017-Feb-19 19:27 068 0 gusting 1 -0.6
2017-Feb-19 19:22 068 0 gusting 1 -0.6
2017-Feb-19 19:17 068 0 gusting 1 -0.6
2017-Feb-19 19:12 068 0 gusting 1 -0.6
2017-Feb-19 19:02 068 0 gusting 0 -0.6
2017-Feb-19 18:57 068 -0.6
2017-Feb-19 18:52 068 -0.0
2017-Feb-19 18:47 068 -0.0
2017-Feb-19 18:42 068 -0.0
2017-Feb-19 18:37 068 -0.0
2017-Feb-19 18:32 068 -0.0
2017-Feb-19 18:27 068 -0.0
2017-Feb-19 18:22 068 -0.0
2017-Feb-19 18:17 068 -0.0
2017-Feb-19 18:12 068 -0.0
2017-Feb-19 18:07 068 -0.0
2017-Feb-19 18:02 068 -0.0
2017-Feb-19 17:57 068 -0.0
2017-Feb-19 17:52 068 -0.0
2017-Feb-19 17:47 068 -0.0
2017-Feb-19 17:42 068 -0.0
2017-Feb-19 17:37 068 -0.0
2017-Feb-19 17:32 068 -0.0
2017-Feb-19 17:27 068 -0.0
2017-Feb-19 17:22 068 -0.0
2017-Feb-19 17:17 068 -0.0
2017-Feb-19 17:12 068 -0.0
2017-Feb-19 17:07 068 -0.0
2017-Feb-19 17:02 068 -0.0
2017-Feb-19 16:57 068 -0.0
2017-Feb-19 16:52 068 -0.0
2017-Feb-19 16:47 068 -0.0
2017-Feb-19 16:42 068 -0.0
2017-Feb-19 16:37 068 -0.0
2017-Feb-19 16:32 068 -0.0
2017-Feb-19 16:27 068 -0.0
2017-Feb-19 16:22 068 -0.0
2017-Feb-19 16:17 068 -0.0
2017-Feb-19 16:12 068 -0.0
2017-Feb-19 16:07 068 0.6
2017-Feb-19 16:02 068 0.6
2017-Feb-19 15:57 068 0.6
2017-Feb-19 15:52 068 -0.0
2017-Feb-19 15:47 068 -0.0
2017-Feb-19 15:42 068 -0.0
2017-Feb-19 15:37 068 -0.0
2017-Feb-19 15:32 068 0.6
2017-Feb-19 15:27 068 0.6
2017-Feb-19 15:22 068 0.6
2017-Feb-19 15:17 068 0.6
2017-Feb-19 15:12 068 0.6
2017-Feb-19 15:07 068 0.6
2017-Feb-19 15:02 068 0.6
2017-Feb-19 14:57 068 0.6
2017-Feb-19 14:52 068 0.6
2017-Feb-19 14:47 068 0.6
2017-Feb-19 14:42 068 0.6
2017-Feb-19 14:37 068 0.6
2017-Feb-19 14:32 068 0.6
2017-Feb-19 14:27 068 0.6
2017-Feb-19 14:22 068 0.6
2017-Feb-19 14:17 068 0.6
2017-Feb-19 14:12 090 0.6
2017-Feb-19 14:07 068 0.6
2017-Feb-19 14:02 068 0.6
2017-Feb-19 13:57 090 0.6
2017-Feb-19 13:52 068 0.6
2017-Feb-19 13:47 068 0.6
2017-Feb-19 13:42 068 0.6
2017-Feb-19 13:37 068 0.6
2017-Feb-19 13:32 068 0.6
2017-Feb-19 13:27 068 0.6
2017-Feb-19 13:22 090 0.6
2017-Feb-19 13:17 068 0.6
2017-Feb-19 13:12 068 0.6
2017-Feb-19 13:07 068 0.6
2017-Feb-19 13:02 068 0.6
2017-Feb-19 12:57 068 0.6
2017-Feb-19 12:52 068 0.6
2017-Feb-19 12:47 068 0.6
2017-Feb-19 12:42 068 0.6
2017-Feb-19 12:37 068 0.6
2017-Feb-19 12:32 068 0.6
2017-Feb-19 12:27 068 0.6
2017-Feb-19 12:22 023 0.6
2017-Feb-19 12:17 068 0.6
2017-Feb-19 12:12 068 0.6
2017-Feb-19 12:07 068 0.6
2017-Feb-19 12:02 068 -0.0
2017-Feb-19 11:57 068 0.6
2017-Feb-19 11:52 068 -0.0
2017-Feb-19 11:47 068 -0.0
2017-Feb-19 11:42 045 -0.0
2017-Feb-19 11:37 068 -0.0
2017-Feb-19 11:32 068 -0.0
2017-Feb-19 11:27 113 -0.0
2017-Feb-19 11:22 023 -0.0
2017-Feb-19 11:17 068 -0.0
2017-Feb-19 11:12 023 0 gusting 1 -0.6
2017-Feb-19 11:07 045 -0.6
2017-Feb-19 11:02 045 -0.6
2017-Feb-19 10:57 045 -0.6
2017-Feb-19 10:52 068 -0.6
2017-Feb-19 10:47 045 -0.6
2017-Feb-19 10:42 023 -0.6
2017-Feb-19 10:37 023 -0.6
2017-Feb-19 10:32 023 -1.1
2017-Feb-19 10:27 090 0 gusting 1 -1.1
2017-Feb-19 10:22 023 0 gusting 1 -1.1
2017-Feb-19 10:17 045 -1.1
2017-Feb-19 10:12 023 0 gusting 1 -1.1
2017-Feb-19 10:07 023 0 gusting 1 -1.1
2017-Feb-19 10:02 023 0 gusting 1 -1.1
2017-Feb-19 09:57 -1.7
2017-Feb-19 09:52 -1.7
2017-Feb-19 09:47 -1.7
2017-Feb-19 09:42 023 0 gusting 1 -1.7
2017-Feb-19 09:37 -1.7
2017-Feb-19 09:32 023 0 gusting 1 -1.7
2017-Feb-19 09:27 023 0 gusting 2 -2.2
2017-Feb-19 09:22 023 1 gusting 2 -1.7
2017-Feb-19 09:17 023 1 gusting 2 -2.2
2017-Feb-19 09:12 023 1 gusting 2 -2.2
2017-Feb-19 09:07 -2.2
2017-Feb-19 09:02 023 1 gusting 2 -2.2
2017-Feb-19 08:57 023 1 gusting 2 -2.2
2017-Feb-19 08:52 023 1 gusting 2 -2.2
2017-Feb-19 08:47 023 1 gusting 3 -2.2
2017-Feb-19 08:42 023 1 gusting 3 -2.2
2017-Feb-19 08:37 023 1 gusting 2 -2.2
2017-Feb-19 08:32 023 0 gusting 2 -2.2
2017-Feb-19 08:27 -2.2
2017-Feb-19 08:22 023 0 gusting 2 -2.8
2017-Feb-19 08:17 023 1 gusting 1 -2.8
2017-Feb-19 08:12 -2.8
2017-Feb-19 08:07 023 0 gusting 1 -2.8
2017-Feb-19 08:02 023 0 gusting 2 -2.8
2017-Feb-19 07:57 023 1 gusting 2 -2.8
2017-Feb-19 07:52 338 1 gusting 2 -2.8
2017-Feb-19 07:47 023 1 gusting 2 -2.8
2017-Feb-19 07:42 045 1 gusting 1 -2.8
2017-Feb-19 07:37 -2.8
2017-Feb-19 07:32 -2.8
2017-Feb-19 07:27 023 1 gusting 2 -2.8
2017-Feb-19 07:22 023 1 gusting 2 -2.8
2017-Feb-19 07:17 023 1 gusting 2 -3.3
2017-Feb-19 07:12 023 1 gusting 4 -3.3
2017-Feb-19 07:07 023 2 gusting 4 -3.3
2017-Feb-19 07:02 023 2 gusting 3 -3.3
2017-Feb-19 06:57 023 2 gusting 3 -3.3
2017-Feb-19 06:52 023 2 gusting 3 -3.3
2017-Feb-19 06:47 023 2 gusting 4 -3.3
2017-Feb-19 06:42 023 2 gusting 4 -3.3
2017-Feb-19 06:37 068 1 gusting 4 -3.3
2017-Feb-19 06:32 023 2 gusting 3 -3.3
2017-Feb-19 06:27 023 2 gusting 3 -3.3
2017-Feb-19 06:22 023 3 gusting 3 -3.3
2017-Feb-19 06:17 023 2 gusting 4 -3.3
2017-Feb-19 06:12 023 3 gusting 4 -3.3
2017-Feb-19 06:07 023 3 gusting 4 -3.3
2017-Feb-19 06:02 045 3 gusting 6 -3.3
2017-Feb-19 05:57 023 3 gusting 6 -3.3
2017-Feb-19 05:52 023 3 gusting 6 -3.3
2017-Feb-19 05:47 045 2 gusting 4 -3.3
2017-Feb-19 05:42 023 3 gusting 3 -3.3
2017-Feb-19 05:37 023 3 gusting 4 -3.3
2017-Feb-19 05:32 023 3 gusting 5 -3.3
2017-Feb-19 05:27 023 3 gusting 5 -3.3
2017-Feb-19 05:22 023 3 gusting 6 -3.3
2017-Feb-19 05:17 023 3 gusting 6 -3.9
2017-Feb-19 05:12 -3.9
2017-Feb-19 05:07 338 3 gusting 6 -3.9
2017-Feb-19 05:02 045 3 gusting 6 -3.9
2017-Feb-19 04:57 338 3 gusting 4 -3.9
2017-Feb-19 04:52 023 3 gusting 4 -3.9
2017-Feb-19 04:47 023 3 gusting 4 -3.9
2017-Feb-19 04:42 023 2 gusting 4 -3.9
2017-Feb-19 04:37 023 2 gusting 4 -3.9
2017-Feb-19 04:32 023 2 gusting 4 -3.9
2017-Feb-19 04:27 023 2 gusting 5 -3.9
2017-Feb-19 04:22 023 3 gusting 5 -4.4
2017-Feb-19 04:17 023 3 gusting 3 -4.4
2017-Feb-19 04:12 023 2 gusting 3 -4.4
2017-Feb-19 04:07 -4.4
2017-Feb-19 04:02 -4.4
2017-Feb-19 03:57 338 2 gusting 5 -5.0
2017-Feb-19 03:52 023 2 gusting 5 -5.0
2017-Feb-19 03:47 023 2 gusting 3 -5.0
2017-Feb-19 03:42 023 2 gusting 2 -5.6
2017-Feb-19 03:37 023 1 gusting 2 -5.6
2017-Feb-19 03:32 023 1 gusting 2 -6.1
2017-Feb-19 03:27 023 1 gusting 2 -6.1
2017-Feb-19 03:22 023 1 gusting 1 -6.1
2017-Feb-19 03:17 023 1 gusting 1 -6.7
2017-Feb-19 03:12 023 1 gusting 1 -6.7
2017-Feb-19 03:07 023 0 gusting 1 -6.7
2017-Feb-19 03:02 -6.7
2017-Feb-19 02:57 023 -6.7
2017-Feb-19 02:52 023 -6.7
2017-Feb-19 02:47 -7.2
2017-Feb-19 02:42 023 -7.2
2017-Feb-19 02:37 338 -7.2
2017-Feb-19 02:32 338 -7.2
2017-Feb-19 02:27 338 -7.2
2017-Feb-19 02:22 338 -7.2
2017-Feb-19 02:17 315 -7.2
2017-Feb-19 02:12 315 -7.2
2017-Feb-19 02:07 338 -7.2
2017-Feb-19 02:02 338 -7.2
2017-Feb-19 01:57 338 -7.8
2017-Feb-19 01:52 338 -7.8
2017-Feb-19 01:47 315 -7.8
2017-Feb-19 01:42 315 -7.8
2017-Feb-19 01:37 338 -7.8
2017-Feb-19 01:32 315 -7.8
2017-Feb-19 01:27 293 -7.8
2017-Feb-19 01:22 315 -7.8
2017-Feb-19 01:17 338 -7.8
2017-Feb-19 01:12 315 -7.8
2017-Feb-19 01:07 315 -8.3
2017-Feb-19 01:02 315 -8.3
2017-Feb-19 00:57 338 -8.3
2017-Feb-19 00:52 338 0 gusting 1 -8.3
2017-Feb-19 00:47 315 0 gusting 1 -8.3
2017-Feb-19 00:42 315 -8.3
2017-Feb-19 00:37 338 -8.3
2017-Feb-19 00:32 338 -8.3
2017-Feb-19 00:27 023 -8.3
2017-Feb-19 00:22 338 -8.3
2017-Feb-19 00:17 315 -8.9
2017-Feb-19 00:12 338 -8.9
2017-Feb-19 00:07 338 -8.9
2017-Feb-19 00:02 -8.9
2017-Feb-18 23:57 023 -8.9
2017-Feb-18 23:52 023 -8.9
2017-Feb-18 23:47 338 -8.9
2017-Feb-18 23:42 315 -8.9
2017-Feb-18 23:37 338 -8.9
2017-Feb-18 23:32 023 -8.9
2017-Feb-18 23:27 023 -9.4
2017-Feb-18 23:22 023 -9.4
2017-Feb-18 23:17 023 -9.4
2017-Feb-18 23:12 023 -8.9
2017-Feb-18 23:07 -8.9
2017-Feb-18 23:02 338 -9.4
2017-Feb-18 22:57 338 -9.4
2017-Feb-18 22:52 -9.4
2017-Feb-18 22:47 315 -9.4
2017-Feb-18 22:42 315 -9.4
2017-Feb-18 22:37 315 0 gusting 1 -9.4
2017-Feb-18 22:32 315 -9.4
2017-Feb-18 22:27 315 -9.4
2017-Feb-18 22:22 315 -9.4
2017-Feb-18 22:17 315 -8.9
2017-Feb-18 22:12 315 -8.9
2017-Feb-18 22:07 315 -8.9
2017-Feb-18 21:57 315 -8.9
2017-Feb-18 21:52 315 -8.9
2017-Feb-18 21:47 315 -8.9
2017-Feb-18 21:42 315 -8.9
2017-Feb-18 21:37 315 -8.9
2017-Feb-18 21:32 338 -8.9
2017-Feb-18 21:27 338 -8.9
2017-Feb-18 21:22 338 -8.9
2017-Feb-18 21:17 315 -8.9
2017-Feb-18 21:12 -8.9
2017-Feb-18 21:07 023 -8.3
2017-Feb-18 21:02 315 -8.3
2017-Feb-18 20:57 113 -8.3
2017-Feb-18 20:52 113 -8.3
2017-Feb-18 20:47 113 -8.3
2017-Feb-18 20:42 113 -8.3
2017-Feb-18 20:37 113 -8.3
2017-Feb-18 20:32 068 -8.3
2017-Feb-18 20:27 338 -8.3
2017-Feb-18 20:22 315 -7.8
2017-Feb-18 20:17 315 -7.8
2017-Feb-18 20:12 315 -7.8
2017-Feb-18 20:07 270 -7.8
2017-Feb-18 20:02 225 -7.8
2017-Feb-18 19:57 180 -7.8
2017-Feb-18 19:52 180 -7.8
2017-Feb-18 19:47 180 -7.2
2017-Feb-18 19:42 203 -7.2
2017-Feb-18 19:37 180 -7.2
2017-Feb-18 19:32 158 -7.2
2017-Feb-18 19:27 158 -7.2
2017-Feb-18 19:22 158 -7.2
2017-Feb-18 19:17 180 -7.2
2017-Feb-18 19:12 203 -7.2
2017-Feb-18 19:07 225 -7.2
2017-Feb-18 19:02 203 -6.7
2017-Feb-18 18:57 180 0 gusting 1 -6.7
2017-Feb-18 18:52 180 0 gusting 1 -6.7
2017-Feb-18 18:47 203 0 gusting 1 -6.7
2017-Feb-18 18:42 203 0 gusting 1 -6.7
2017-Feb-18 18:37 180 1 gusting 1 -6.7
2017-Feb-18 18:32 203 1 gusting 1 -6.1
2017-Feb-18 18:27 225 0 gusting 1 -6.1
2017-Feb-18 18:22 203 0 gusting 0 -6.1
2017-Feb-18 18:17 180 -6.1
2017-Feb-18 18:12 158 -5.6
2017-Feb-18 18:07 180 -5.6
2017-Feb-18 18:02 203 -5.6
2017-Feb-18 17:57 315 -5.6
2017-Feb-18 17:52 315 -5.0
2017-Feb-18 17:47 315 -5.0
2017-Feb-18 17:42 135 -4.4
2017-Feb-18 17:37 090 -4.4
2017-Feb-18 17:32 113 -4.4
2017-Feb-18 17:27 135 -3.9
2017-Feb-18 17:22 135 -3.9
2017-Feb-18 17:17 180 -3.9
2017-Feb-18 17:12 180 -3.9
2017-Feb-18 17:07 158 -3.9
2017-Feb-18 17:02 158 -3.3
2017-Feb-18 16:57 158 0 gusting 2 -3.3
2017-Feb-18 16:52 158 0 gusting 2 -3.3
2017-Feb-18 16:47 158 0 gusting 1 -3.3
2017-Feb-18 16:42 158 -3.3
2017-Feb-18 16:37 158 -2.8
2017-Feb-18 16:32 180 -2.8
2017-Feb-18 16:27 203 -2.8
2017-Feb-18 16:22 203 -2.8
2017-Feb-18 16:17 203 0 gusting 2 -2.8
2017-Feb-18 16:12 203 1 gusting 2 -2.2
2017-Feb-18 16:07 158 1 gusting 5 -2.2
2017-Feb-18 16:02 135 1 gusting 6 -2.2
2017-Feb-18 15:57 158 2 gusting 6 -2.2
2017-Feb-18 15:52 180 3 gusting 6 -2.2
2017-Feb-18 15:47 180 3 gusting 6 -2.2
2017-Feb-18 15:42 180 2 gusting 4 -2.2
2017-Feb-18 15:37 203 3 gusting 6 -2.2
2017-Feb-18 15:32 180 3 gusting 6 -2.2
2017-Feb-18 15:27 248 3 gusting 6 -2.2
2017-Feb-18 15:22 180 3 gusting 5 -1.7
2017-Feb-18 15:17 135 3 gusting 10 -1.7
2017-Feb-18 15:12 180 4 gusting 10 -1.7
2017-Feb-18 15:07 180 4 gusting 6 -1.7
2017-Feb-18 15:02 158 3 gusting 5 -1.7
2017-Feb-18 14:57 180 3 gusting 5 -1.7
2017-Feb-18 14:52 180 3 gusting 4 -1.7
2017-Feb-18 14:47 225 2 gusting 4 -1.7
2017-Feb-18 14:42 203 1 gusting 4 -1.7
2017-Feb-18 14:37 158 2 gusting 4 -1.7
2017-Feb-18 14:32 203 3 gusting 3 -1.1
2017-Feb-18 14:27 158 1 gusting 3 -1.1
2017-Feb-18 14:22 158 1 gusting 3 -1.1
2017-Feb-18 14:17 180 0 -1.1
2017-Feb-18 14:12 180 -1.1
2017-Feb-18 14:07 225 -1.1
2017-Feb-18 14:02 248 0 gusting 3 -1.1
2017-Feb-18 13:57 248 0 gusting 3 -1.1
2017-Feb-18 13:52 180 1 gusting 5 -1.1
2017-Feb-18 13:47 203 1 gusting 6 -0.6
2017-Feb-18 13:42 203 2 gusting 6 -0.6
2017-Feb-18 13:37 248 2 gusting 6 -0.6
2017-Feb-18 13:32 203 2 gusting 6 -0.6
2017-Feb-18 13:27 180 3 gusting 6 -0.6
2017-Feb-18 13:22 225 3 gusting 6 -0.6
2017-Feb-18 13:17 225 2 gusting 7 -0.6
2017-Feb-18 13:12 180 3 gusting 7 -0.6
2017-Feb-18 13:07 225 3 gusting 7 -0.6
2017-Feb-18 13:02 225 4 gusting 5 -0.6
2017-Feb-18 12:57 248 2 gusting 10 -0.6
2017-Feb-18 12:52 203 3 gusting 10 -0.6
2017-Feb-18 12:47 248 5 gusting 10 -0.0
2017-Feb-18 12:42 270 6 gusting 9 -0.0
2017-Feb-18 12:37 225 5 gusting 13 -0.0
2017-Feb-18 12:32 270 5 gusting 13 -0.0
2017-Feb-18 12:27 248 6 gusting 13 -0.0
2017-Feb-18 12:22 248 6 gusting 11 -0.0
2017-Feb-18 12:17 203 6 gusting 13 0.6
2017-Feb-18 12:12 270 6 gusting 13 0.6
2017-Feb-18 12:07 180 6 gusting 13 0.6
2017-Feb-18 12:02 180 6 gusting 13 0.6
2017-Feb-18 11:57 225 6 gusting 16 0.6
2017-Feb-18 11:52 203 7 gusting 16 0.6
2017-Feb-18 11:47 293 7 gusting 16 1.1
2017-Feb-18 11:42 225 6 gusting 11 1.1
2017-Feb-18 11:37 225 6 gusting 13 1.1
2017-Feb-18 11:32 180 6 gusting 13 1.1
2017-Feb-18 11:27 135 6 gusting 13 1.1
2017-Feb-18 11:22 180 6 gusting 10 1.1
2017-Feb-18 11:17 135 6 gusting 10 1.1
2017-Feb-18 11:12 135 6 gusting 10 1.1
2017-Feb-18 11:07 180 6 gusting 14 1.1
2017-Feb-18 11:02 180 6 gusting 14 1.1
2017-Feb-18 10:57 180 7 gusting 9 1.1
2017-Feb-18 10:52 135 6 gusting 7 1.1
2017-Feb-18 10:47 158 5 gusting 10 0.6
2017-Feb-18 10:42 158 6 gusting 10 0.6
2017-Feb-18 10:37 135 6 gusting 10 0.6
2017-Feb-18 10:32 158 6 gusting 10 0.6
2017-Feb-18 10:27 180 6 gusting 10 0.6
2017-Feb-18 10:22 158 6 gusting 10 0.6
2017-Feb-18 10:17 180 6 gusting 10 0.6
2017-Feb-18 10:12 203 6 gusting 11 0.6
2017-Feb-18 10:07 180 6 gusting 13 0.6
2017-Feb-18 10:02 180 6 gusting 13 0.6
2017-Feb-18 09:57 180 7 gusting 13 -0.0
2017-Feb-18 09:52 180 6 gusting 16 -0.0
2017-Feb-18 09:47 180 6 gusting 16 -0.0
2017-Feb-18 09:42 158 7 gusting 16 -0.0
2017-Feb-18 09:37 180 6 gusting 12 -0.0
2017-Feb-18 09:32 180 6 gusting 10 -0.0
2017-Feb-18 09:27 158 6 gusting 12 -0.0
2017-Feb-18 09:22 158 6 gusting 12 -0.0
2017-Feb-18 09:17 225 6 gusting 12 -0.6
2017-Feb-18 09:12 158 6 gusting 12 -0.6
2017-Feb-18 09:07 180 6 gusting 12 -0.6
2017-Feb-18 09:02 158 6 gusting 10 -0.6
2017-Feb-18 08:57 090 5 gusting 8 -0.6
2017-Feb-18 08:52 135 5 gusting 8 -0.6
2017-Feb-18 08:47 158 6 gusting 11 -0.6
2017-Feb-18 08:42 135 6 gusting 11 -0.6
2017-Feb-18 08:37 113 6 gusting 10 -1.1
2017-Feb-18 08:32 135 6 gusting 10 -1.1
2017-Feb-18 08:27 135 6 gusting 19 -1.1
2017-Feb-18 08:22 135 6 gusting 19 -1.1
2017-Feb-18 08:17 135 6 gusting 19 -1.1
2017-Feb-18 08:12 113 7 gusting 12 -1.1
2017-Feb-18 08:07 158 7 gusting 18 -1.1
2017-Feb-18 08:02 158 9 gusting 18 -1.1
2017-Feb-18 07:57 158 9 gusting 18 -1.1
2017-Feb-18 07:52 135 9 gusting 17 -1.1
2017-Feb-18 07:47 158 8 gusting 14 -1.1
2017-Feb-18 07:42 113 8 gusting 13 -1.7
2017-Feb-18 07:37 135 6 gusting 12 -1.7
2017-Feb-18 07:32 135 6 gusting 12 -1.7
2017-Feb-18 07:27 135 6 gusting 14 -1.7
2017-Feb-18 07:22 135 6 gusting 14 -1.7
2017-Feb-18 07:17 158 7 gusting 14 -2.2
2017-Feb-18 07:12 180 7 gusting 9 -2.2
2017-Feb-18 07:07 135 6 gusting 9 -2.2
2017-Feb-18 07:02 135 6 gusting 9 -2.2
2017-Feb-18 06:57 158 6 gusting 13 -2.2
2017-Feb-18 06:52 135 6 gusting 13 -2.2
2017-Feb-18 06:47 135 7 gusting 13 -2.2
2017-Feb-18 06:42 113 7 gusting 13 -2.2
2017-Feb-18 06:37 135 7 gusting 13 -2.2
2017-Feb-18 06:32 203 7 gusting 13 -2.8
2017-Feb-18 06:27 135 6 gusting 13 -2.8
2017-Feb-18 06:22 135 6 gusting 11 -2.8
2017-Feb-18 06:17 158 6 gusting 11 -2.8
2017-Feb-18 06:12 135 6 gusting 13 -2.8
2017-Feb-18 06:07 135 6 gusting 13 -2.8
2017-Feb-18 06:02 180 6 gusting 13 -2.8
2017-Feb-18 05:57 158 6 gusting 13 -2.8
2017-Feb-18 05:52 135 6 gusting 13 -2.8
2017-Feb-18 05:47 135 6 gusting 11 -2.8
2017-Feb-18 05:42 180 6 gusting 11 -2.8
2017-Feb-18 05:37 135 6 gusting 11 -2.8
2017-Feb-18 05:32 135 6 gusting 10 -2.8
2017-Feb-18 05:27 158 6 gusting 10 -2.8
2017-Feb-18 05:22 113 5 gusting 9 -2.8
2017-Feb-18 05:17 135 5 gusting 9 -2.8
2017-Feb-18 05:12 180 5 gusting 9 -2.8
2017-Feb-18 05:07 158 5 gusting 9 -2.8
2017-Feb-18 05:02 135 6 gusting 9 -2.8
2017-Feb-18 04:57 180 5 gusting 10 -2.8
2017-Feb-18 04:52 180 6 gusting 10 -2.8
2017-Feb-18 04:47 180 6 gusting 13 -2.8
2017-Feb-18 04:42 135 6 gusting 13 -2.2
2017-Feb-18 04:37 158 6 gusting 13 -2.2
2017-Feb-18 04:32 158 6 gusting 13 -2.2
2017-Feb-18 04:27 180 7 gusting 13 -2.8
2017-Feb-18 04:22 180 7 gusting 13 -2.2
2017-Feb-18 04:17 158 6 gusting 11 -2.2
2017-Feb-18 04:12 135 7 gusting 11 -2.8
2017-Feb-18 04:07 158 6 gusting 11 -2.8
2017-Feb-18 04:02 180 6 gusting 9 -2.8
2017-Feb-18 03:57 180 6 gusting 9 -2.8
2017-Feb-18 03:52 180 6 gusting 12 -2.8
2017-Feb-18 03:47 180 6 gusting 12 -2.2
2017-Feb-18 03:42 135 6 gusting 10 -2.8
2017-Feb-18 03:37 135 6 gusting 10 -2.2
2017-Feb-18 03:32 135 6 gusting 10 -2.2
2017-Feb-18 03:27 135 7 gusting 10 -2.2
2017-Feb-18 03:22 180 6 gusting 10 -2.2
2017-Feb-18 03:17 158 6 gusting 8 -2.2
2017-Feb-18 03:12 158 6 gusting 8 -2.2
2017-Feb-18 03:07 158 6 gusting 8 -2.2
2017-Feb-18 03:02 135 6 gusting 8 -2.2
2017-Feb-18 02:57 158 6 gusting 9 -2.2
2017-Feb-18 02:52 180 6 gusting 9 -2.2
2017-Feb-18 02:47 158 6 gusting 8 -2.2
2017-Feb-18 02:42 180 5 gusting 8 -2.2
2017-Feb-18 02:37 158 5 gusting 7 -2.2
2017-Feb-18 02:32 180 5 gusting 9 -2.2
2017-Feb-18 02:27 158 6 gusting 10 -2.2
2017-Feb-18 02:22 158 6 gusting 10 -1.7
2017-Feb-18 02:17 180 6 gusting 10 -2.2
2017-Feb-18 02:12 180 6 gusting 10 -1.7
2017-Feb-18 02:07 158 6 gusting 8 -1.7
2017-Feb-18 02:02 158 6 gusting 8 -1.7
2017-Feb-18 01:57 135 6 gusting 8 -1.7
2017-Feb-18 01:52 158 6 gusting 8 -1.7
2017-Feb-18 01:47 338 6 gusting 9 -1.7
2017-Feb-18 01:42 158 5 gusting 9 -1.7
2017-Feb-18 01:37 225 6 gusting 9 -1.7
2017-Feb-18 01:32 180 5 gusting 11 -1.7
2017-Feb-18 01:27 113 5 gusting 11 -1.1
2017-Feb-18 01:22 180 6 gusting 11 -1.1
2017-Feb-18 01:17 135 6 gusting 10 -1.1
2017-Feb-18 01:12 180 6 gusting 9 -1.1
2017-Feb-18 01:07 135 6 gusting 10 -1.1
2017-Feb-18 01:02 135 6 gusting 10 -1.1